El Paso International Airport
KELP : now visible

Airfield :











YOU CAN JOIN US ON...

 
LOGIN :

Register | Disclaimer

   EN    FR    IT 

 









Legend :    VFR   Marginal VFR   IFR   Intensive IFR   Very Intensive IFR
Visi :
Ceiling :
>= 8 km
>= 3000ft
5 to 8 km
1000 to 3000 ft
1500m to 5 km
500 to 1000 ft
800 to 1500m
200 to 500 ft
< 800m
< 200 ft
Symbols :   Thunderstorms  Fog  Heavy snow  Heavy precipitations  Wind > 20 kt







- Airport Elevation : 3959 ft
- IATA code : ELP


KELP - El Paso International

CURRENT METAR :
  • 191351Z 24013KT 10SM FEW150 FEW230 27/13 A2998 RMK AO2 SLP068 T02720133

EXPIRED METARs :
  • 191251Z 23008KT 10SM FEW150 FEW230 26/13 A2998 RMK AO2 SLP066 T02560133
  • 191151Z 21007KT 10SM FEW150 26/13 A2998 RMK AO2 SLP065 T02610128 10317 20261 53008

TAF KELP
Valid from the 19 at 12:00 until the 20 at 12:00 UTC


191144Z 1912/2012 22008KT P6SM FEW150 BKN200
FM192200 19013G17KT P6SM VCTS SCT100 BKN250CB
FM200200 23012KT P6SM BKN250
KZAB FIR / North America



MET'MAP, your aeronautical weather chart ! - Copyright ORBIFLY December 2007 - Disclaimer

ORBIFLY MET'MAP TEAM :

Programming & Development : Alexandra Zaïnal
Concept & Development : Baudouin d'Aumeries
Co-Development & Prog : Marc-Olivier Méhu
Technical & hardware support : Manuel Goepfert

Contact : metmap@orbifly.com




SOURCES & CREDITS :

   NOAA       Earth
Advisory